CZ-6A DEB

Satellite information

Favourite Embed

Satellite Type and Status

DEBRISIN ORBIT

Key statistics

Satellite CZ-6A DEB at a glance.

Uptime

1129

Days in orbit

Revolutions

≈ 15.3

Per day

Orbit

SSO

Sun Synchronous Orbit

Inclination

98.5

Latest

Satellite identification and parameters

Extended collection of information and parameters for CZ-6A DEB.

Object identification

Identified? True

Debris? True

Object name: CZ-6A DEB

International designator: 2022-151AER

Object number (NORAD): 56617

Object ID (CCSDS): 56617

Country: PEOPLES REPUBLIC OF CHINA (PRC)

Current information (Y/N): Y

RCS size: SMALL

Orbital parameters

Period: 94.421 minutes

Inclination: 98.5118 deg

SMA: 6868.677 km

Apoapsis: 526.33 km

Periapsis: 454.754 km

RAAN: 72.1144 deg

Eccentricy: 0.00521031

Argument of periapsis: 330.2421 deg

Mean anomaly: 29.5852 deg

Mean motion: 15.25081771 rev/day

Mean motion (dot): 0.00142714 rev/day2

B* drag term: 0.0053981488 1/REarth

Two-line elements (TLE)

Creation date: Dec. 12, 2025, 10:14 a.m.

Reference frame: TEME

Reference center: EARTH

Epoch: Dec. 12, 2025, 5 a.m. UTC

TLE line 0: 0 CZ-6A DEB

TLE line 1: 1 56617U 22151AER 25346.20851258 .00142714 00000-0 53981-2 0 9994

TLE line 2: 2 56617 98.5118 72.1144 0052103 330.2421 29.5852 15.25081771142278

Live tracking on map

Real-time ground track for satellite CZ-6A DEB.

In-orbit conjunctions

A list of the most updated potential collisions computed for object CZ-6A DEB.

Target Orbit TCA Probability of collision Miss distance Type
SL-14 R/B LEO 2025-06-01 06:45:43 0.001838084 28.0 (m) ROCKET BODY
COSMOS 2251 DEB LEO 2024-06-23 14:42:42 0.0001829933 115.0 (m) DEBRIS

Associated space launch

Chinese satellite reported for atmospheric/ocean/environmental/spatial parameter research purposes, details TBD.

CZ-6A DEB was lifted into orbit during the mission ‘Long March 6A | Yunhai 3’, on board a Long March 6A space rocket.

The launch took place on Nov. 11, 2022, 10:52 p.m. from Launch Complex 9A.

For more information about the launch, click the button.

Launch to space Long March 6A | Yunhai 3
Long March 6A | Yunhai 3

Agency: N/A

Status: Launch Successful

Launch date: Nov. 11, 2022, 10:52 p.m. UTC

Rocket: Long March 6A

Launch pad: Launch Complex 9A

Location: Taiyuan Satellite Launch Center, People's Republic of China

...

Latest news about this satellite

There are no fresh news available about this satellite. Check back as we update our databases every day.


Newsletter sign-up

Weekly statistics, charts and insights to help you stay on top of the space industry.